TimeIST,TemperatureF,Dew PointF,Humidity,Sea Level PressureIn,VisibilityMPH,Wind Direction,Wind SpeedMPH,Gust SpeedMPH,PrecipitationIn,Events,Conditions,WindDirDegrees,DateUTC
12:10 AM,71.6,68.0,88,29.95,2.5,NNE,5.8,-,N/A,,Haze,30,2013-01-17 18:40:00
12:40 AM,71.6,68.0,88,29.95,2.5,NNE,5.8,-,N/A,,Haze,20,2013-01-17 19:10:00
1:10 AM,71.6,68.0,88,29.95,2.5,North,5.8,-,N/A,,Haze,10,2013-01-17 19:40:00
1:40 AM,71.6,68.0,88,29.95,2.5,NNE,4.6,-,N/A,,Haze,20,2013-01-17 20:10:00
2:10 AM,71.6,68.0,88,29.95,2.5,North,5.8,-,N/A,,Haze,350,2013-01-17 20:40:00
2:30 AM,71,67,85,29.93,1,NNE,6.9,,,,Haze,20,2013-01-17 21:00:00
3:10 AM,69.8,68.0,94,29.92,1.9,NNE,8.1,-,N/A,,Haze,20,2013-01-17 21:40:00
3:40 AM,69.8,68.0,94,29.92,1.6,North,8.1,-,N/A,,Haze,10,2013-01-17 22:10:00
4:10 AM,69.8,68.0,94,29.92,1.6,North,8.1,-,N/A,,Haze,10,2013-01-17 22:40:00
4:40 AM,69.8,68.0,94,29.92,1.6,NNE,6.9,-,N/A,,Haze,30,2013-01-17 23:10:00
5:10 AM,69.8,66.2,88,29.95,1.6,NE,5.8,-,N/A,,Haze,40,2013-01-17 23:40:00
5:30 AM,72,64,71,29.95,1,NE,4.6,,,,Haze,50,2013-01-18 00:00:00
5:40 AM,71.6,66.2,83,29.95,1.2,NNE,5.8,-,N/A,,Scattered Clouds,30,2013-01-18 00:10:00
6:10 AM,73.4,64.4,73,29.95,1.2,NNE,8.1,-,N/A,,Scattered Clouds,20,2013-01-18 00:40:00
6:40 AM,73.4,66.2,78,29.98,1.2,NNE,8.1,-,N/A,,Scattered Clouds,20,2013-01-18 01:10:00
7:10 AM,75.2,66.2,73,29.98,1.2,NNE,6.9,-,N/A,,Partly Cloudy,20,2013-01-18 01:40:00
7:40 AM,77.0,66.2,69,30.01,1.6,NNE,6.9,-,N/A,,Haze,20,2013-01-18 02:10:00
8:10 AM,77.0,66.2,69,30.01,1.6,NNE,10.4,-,N/A,,Haze,20,2013-01-18 02:40:00
8:30 AM,77,64,56,30.03,1,NNE,9.2,,,,Haze,20,2013-01-18 03:00:00
8:40 AM,77.0,64.4,65,30.04,1.6,NNE,13.8,-,N/A,,Haze,20,2013-01-18 03:10:00
9:10 AM,78.8,64.4,61,30.04,1.6,NNE,13.8,-,N/A,,Haze,20,2013-01-18 03:40:00
10:10 AM,80.6,64.4,58,30.04,1.9,NNE,12.7,-,N/A,,Haze,30,2013-01-18 04:40:00
10:40 AM,82.4,64.4,54,30.04,2.5,NE,9.2,-,N/A,,Haze,40,2013-01-18 05:10:00
11:30 AM,86,62,34,30.01,2,NE,9.2,,,,Haze,50,2013-01-18 06:00:00
11:40 AM,86.0,64.4,48,30.01,3.1,NNE,6.9,-,N/A,,Haze,30,2013-01-18 06:10:00
12:10 PM,87.8,64.4,46,29.98,3.1,ENE,4.6,-,N/A,,Haze,60,2013-01-18 06:40:00
12:40 PM,87.8,62.6,43,29.98,3.7,ENE,3.5,-,N/A,,Partly Cloudy,70,2013-01-18 07:10:00
1:10 PM,87.8,62.6,43,29.95,3.7,ENE,4.6,-,N/A,,Partly Cloudy,60,2013-01-18 07:40:00
1:40 PM,89.6,62.6,40,29.92,3.7,East,3.5,-,N/A,,Partly Cloudy,80,2013-01-18 08:10:00
2:10 PM,91.4,62.6,38,29.92,4.3,East,4.6,-,N/A,,Partly Cloudy,90,2013-01-18 08:40:00
2:30 PM,91,60,26,29.90,2,East,4.6,,,,Haze,90,2013-01-18 09:00:00
2:40 PM,91.4,62.6,38,29.89,5.0,ENE,3.5,-,N/A,,Partly Cloudy,60,2013-01-18 09:10:00
3:10 PM,91.4,62.6,38,29.89,5.0,East,3.5,-,N/A,,Partly Cloudy,80,2013-01-18 09:40:00
3:40 PM,89.6,62.6,40,29.89,5.0,East,5.8,-,N/A,,Partly Cloudy,90,2013-01-18 10:10:00
4:10 PM,87.8,62.6,43,29.89,3.7,East,6.9,-,N/A,,Scattered Clouds,80,2013-01-18 10:40:00
4:40 PM,87.8,62.6,43,29.89,3.7,East,9.2,-,N/A,,Partly Cloudy,90,2013-01-18 11:10:00
5:10 PM,87.8,62.6,43,29.89,3.7,East,11.5,-,N/A,,Partly Cloudy,90,2013-01-18 11:40:00
5:30 PM,85,64,40,29.90,2,East,11.5,,,,Haze,90,2013-01-18 12:00:00
5:40 PM,84.2,64.4,51,29.89,3.7,East,11.5,-,N/A,,Scattered Clouds,90,2013-01-18 12:10:00
6:40 PM,80.6,66.2,61,29.92,2.5,East,10.4,-,N/A,,Haze,100,2013-01-18 13:10:00
7:10 PM,80.6,64.4,58,29.95,2.5,East,9.2,-,N/A,,Haze,90,2013-01-18 13:40:00
7:40 PM,78.8,66.2,65,29.95,2.5,East,10.4,-,N/A,,Haze,80,2013-01-18 14:10:00
8:10 PM,77.0,66.2,69,29.95,2.5,East,10.4,-,N/A,,Haze,90,2013-01-18 14:40:00
8:30 PM,77,66,61,29.96,1,East,11.5,,,,Haze,90,2013-01-18 15:00:00
8:40 PM,77.0,66.2,69,29.98,2.5,East,9.2,-,N/A,,Haze,90,2013-01-18 15:10:00
9:10 PM,77.0,66.2,69,29.98,2.5,East,6.9,-,N/A,,Haze,80,2013-01-18 15:40:00
9:40 PM,77.0,66.2,69,29.98,2.5,East,5.8,-,N/A,,Haze,80,2013-01-18 16:10:00
10:10 PM,75.2,66.2,73,29.98,2.5,East,4.6,-,N/A,,Haze,80,2013-01-18 16:40:00
10:40 PM,75.2,66.2,73,29.98,2.5,ENE,3.5,-,N/A,,Haze,70,2013-01-18 17:10:00
11:10 PM,75.2,66.2,73,29.98,2.5,ENE,3.5,-,N/A,,Haze,70,2013-01-18 17:40:00
11:30 PM,74,66,71,29.98,1,NE,3.5,,,,Haze,50,2013-01-18 18:00:00
11:40 PM,73.4,66.2,78,29.98,2.5,NE,3.5,-,N/A,,Haze,50,2013-01-18 18:10:00